Terug naar catalogus

COSMOS 2251 DEB

ActiefLEO
NORAD 34024·DEBRIS·🇷🇺 Russia

Gelanceerd Jun 16, 1993 vanaf Plesetsk Cosmodrome

Loading…

Volgende Passages (komende 24 uur)

TLE

VersSource: Space-Track

Epoch: Sep 14, 2026, 05:38 UTC

1 34024U 93036HK  26257.23484924  .00000256  00000-0  97432-4 0  9994
2 34024  74.0472 170.9397 0021018 161.3202 353.0997 14.35637199919779

Volg COSMOS 2251 DEB in realtime met AllMySat

Download on the App Store